Regional Weather Roundup
Issued by NWS

Home | Current Version | Previous Version | Graphics & Text | Print | Product List | Glossary On
Versions: 1 2 3 4 5 6 7 8 9 10 11 12 13 14 15 16 17 18 19 20 21 22 23 24 25 26 27 28 29 30 31 32 33 34 35 36 37 38 39 40 41 42 43 44 45 46 47 48 49 50
000
ASUS45 KTFX 221410
RWRMT
MONTANA REGIONAL WEATHER ROUNDUP
NATIONAL WEATHER SERVICE GREAT FALLS MT
800 AM MDT SUN APR 22 2018

NOTE: "FAIR" INDICATES FEW OR NO CLOUDS BELOW 12000 FEET WITH NO
SIGNIFICANT WEATHER AND/OR OBSTRUCTIONS TO VISIBILITY.

MTZ001>007-043-221500-
WEST OF THE DIVIDE

CITY           SKY/WX    TMP DP  RH WIND       PRES   REMARKS
KALISPELL      FAIR      34  28  79 NE5       30.21R
MISSOULA       FAIR      32  24  72 CALM      30.24R
BUTTE          FAIR      29  23  78 SE3       30.20R
MULLAN PASS    FAIR      28  15  58 CALM      30.16R
ANACONDA         N/A     36  25  64 SW3       30.21R
DEER LODGE       N/A     36  27  69 CALM      30.24R
HAMILTON         N/A     36  27  69 MISG        N/A
PLAINS           N/A     30  24  78 CALM      30.23R
RONAN            N/A     34  28  80 E5        30.24R
$$

MTZ008-052>055-221500-
SOUTHWEST MONTANA

CITY           SKY/WX    TMP DP  RH WIND       PRES   REMARKS
BOZEMAN        FAIR      38  28  67 CALM      30.18R
DILLON         FAIR      36  28  73 CALM      30.16R
ENNIS          SUNNY     32  28  86 CALM      30.20S
W YELLOWSTONE  FAIR      30  27  86 CALM      30.18S
THREE FORKS      N/A     34  29  82 CALM      30.15R
TWIN BRIDGES     N/A     34  25  70 N2        30.14R
$$

MTZ009-010-012-014-046-048-049-054-221500-
EAST SLOPES AND CENTRAL MONTANA

CITY           SKY/WX    TMP DP  RH WIND       PRES   REMARKS
CUT BANK       FAIR      40  22  48 W12       30.14R
GREAT FALLS    FAIR      40  24  53 CALM      30.16R
HELENA         FAIR      43  24  47 CALM      30.19S
AUGUSTA        FAIR      38  19  45 SW10      30.14S WCI  31
BOWMANS CRNR   FAIR      38  20  49 SW8       30.15R WCI  32
CHOTEAU          N/A     41  19  42 SW3       30.17R
FAIRFIELD      FAIR      36  22  56 CALM      30.15R
POWER          FAIR      38  23  53 W6        30.15R
RAYNESFORD     PTSUNNY   42  26  53 CALM      30.16R
ULM            PTSUNNY   43  26  51 W7        30.17R
WHITE SULPHUR    N/A     36  27  69 VRB5      30.17R
$$

MTZ011-013-016-021-045-047-050-051-221500-
NORTH CENTRAL MONTANA

CITY           SKY/WX    TMP DP  RH WIND       PRES   REMARKS
HAVRE          FAIR      41  30  65 SW6       30.16R
LEWISTOWN      CLOUDY    41  26  55 E3        30.16S
N BAR RANCH    CLOUDY    45  18  33 CALM      30.19S
CHINOOK          N/A     39  32  75 NW3       30.16R
GEYSER         PTSUNNY   43  25  49 W3        30.16R
GRASS RANGE    FAIR      42  27  56 CALM      30.13F
STANFORD       PTSUNNY   44  26  49 W7        30.15S
$$

MTZ017>020-022>027-061-062-221500-
NORTHEAST MONTANA

CITY           SKY/WX    TMP DP  RH WIND       PRES   REMARKS
GLASGOW        FAIR      44  30  57 NW7       30.15R
GLENDIVE       FAIR      50  27  40 NW9       30.16S
JORDAN           N/A     46  33  60 W5        30.16S
MALTA          SUNNY     43  30  61 SW6       30.14S
SIDNEY         FAIR      49  30  48 W6        30.14R
WOLF POINT     PTSUNNY   47  29  49 W14       30.16R
PLENTYWOOD       N/A     43  28  56 CALM      30.13R
POPLAR           N/A     43  28  56 W7        30.16R
SCOBEY           N/A     42  24  49 W6        30.11R
$$

MTZ028>42-056>058-221500-
SOUTHCENTRAL AND SOUTHEAST MONTANA

CITY           SKY/WX    TMP DP  RH WIND       PRES   REMARKS
BAKER          FAIR      45  39  79 NW6       30.16S
BILLINGS       FAIR      46  28  49 NE7       30.18S
MILES CITY     FAIR      46  33  60 W3        30.18R
BIG TIMBER     SUNNY     41  27  56 E6        30.18F
EKALAKA          N/A     45  35  67 CALM      30.12R
FORSYTH          N/A     48  30  49 W6        30.19S
HARLOWTON      FAIR      42  24  49 N3        30.18R
LAUREL           N/A     48  25  40 NE10      30.18S
$$

REGIONAL REPORTS...DAKOTAS

CITY           SKY/WX    TMP DP  RH WIND       PRES   REMARKS
WILLISTON      FAIR      47  30  51 CALM      30.13R
MINOT          FAIR      48  37  65 SW14      30.10R
DICKINSON      FAIR      45  37  73 W3        30.11S
BEACH          FAIR      45  34  65 W5        30.18S
CROSBY         FAIR      48  30  49 W10       30.11S
TIOGA          FAIR      39  39 100 SW6       30.13S
BISMARCK       FAIR      45  36  70 S12       30.18S
GRAND FORKS    FAIR      41  38  89 S14       30.23S
FARGO          FAIR      46  34  62 S15       30.28R
BUFFALO SD       N/A     42  37  82 CALM      30.09R
RAPID CITY     FAIR      38  34  85 CALM      30.17R
$$

REGIONAL REPORTS...WYOMING/IDAHO/WASHINGTON

CITY           SKY/WX    TMP DP  RH WIND       PRES   REMARKS
GILLETTE       FAIR      44  36  73 N10       30.17R
SHERIDAN       FAIR      45  33  63 S3        30.19S
BUFFALO WY     FAIR      47  24  40 NW7       30.21R
CODY           FAIR      45  26  47 CALM      30.16R
YELLOWSTONE LA   N/A     28  24  85 CALM      30.25S
IDAHO FALLS    FAIR      46  32  58 SW7       30.16R
SALMON         FAIR      35  31  85 CALM      30.19S
BOISE          FAIR      41  24  51 W3        30.15R
SPOKANE        FAIR      34  26  72 E3        30.26R
$$

REGIONAL REPORTS...ALBERTA

CITY           SKY/WX    TMP DP  RH WIND       PRES   REMARKS
CALGARY        MOSUNNY   41  12  30 W14G20    30.10R
CARDSTON         N/A     39  18  41 SW10G18     N/A
EDMONTON       PTSUNNY   39  21  48 W21G35    29.99R WCI  29
FORT MCMURRAY  LGT RAIN  39  37  93 NW15      29.79R WCI  31
HIGH LEVEL     PTSUNNY   34  30  86 NW3       30.00R
LETHBRIDGE     MOSUNNY   41  25  52 SW8       30.12R
LLOYDMINSTER   MOSUNNY   39  28  65 W23G32    29.88R WCI  29
MEDICINE HAT   SUNNY     41  30  65 SE2       30.12R
MILK RIVER       N/A     39  27  60 W10         N/A
PEACE RIVER    MOSUNNY   36  28  75 W13       30.04R WCI  27
PINCHER CREEK  SUNNY     39  23  52 SW20G25   30.11S WCI  30
WATERTON GATE    N/A     37  18  44 SW13G18     N/A  WCI  29
$$

REGIONAL REPORTS...SASKATCHEWAN

CITY           SKY/WX    TMP DP  RH WIND       PRES   REMARKS
CORONACH         N/A     45  28  53 SW7         N/A
CYPRESS HILLS    N/A     39  19  45 NW8         N/A
ESTEVAN        MOSUNNY   45  32  61 SW9       30.10R
MOOSE JAW        N/A     46  30  53 W18         N/A
PRINCE ALBERT  PTSUNNY   41  36  81 W18G26    29.76R
REGINA         MOSUNNY   43  36  75 W13       30.04R
ROCKGLEN         N/A     45  28  53 W9          N/A
SASKATOON      SUNNY     43  30  61 W20G26    29.92R
SWIFT CURRENT  SUNNY     41  27  56 W14       30.08R
VAL MARIE        N/A     39  28  65 S3          N/A
$$



USA.gov is the U.S. government's official web portal to all federal, state and local government web resources and services.